Location: Newark
(41.0400°S, 62.7845°W)
Time: 09:08:47
(UTC+00:00)

Transit 2A - Pass Details

Date: 09 December 2021
Orbit: 591 x 967 km, 66.7° (Epoch: 19 January)

Event Time Altitude Azimuth Distance (km) Brightness Sun altitude
Rises 13:23:32 0° 16° (NNE) 3,221 9.5 51.9°
Reaches altitude 10° 13:26:56 10° 38° (NE) 2,223 9.0 52.6°
Maximum altitude 13:29:46 15° 72° (ENE) 1,836 9.0 53.1°
Drops below altitude 10° 13:32:29 10° 107° (ESE) 2,114 8.9 53.6°
Sets 13:35:35 0° 130° (SE) 2,974 9.3 54.1°
